Location: Enikep?du
(16.5133°N, 80.7066°E)
Time: 11:41:40
(UTC+00:00)

Cosmos 1241 Rocket - Pass Details

Date: 15 May 2026
Orbit: 938 x 1007 km, 65.8° (Epoch: 8 June)

Event Time Altitude Azimuth Distance (km) Brightness Sun altitude
Exits shadow 22:09:25 66° 238° (WSW) 1,016 4.3 -26.1°
Maximum altitude 22:10:12 76° 292° (WNW) 967 4.3 -26.0°
Drops below altitude 10° 22:16:20 10° 18° (NNE) 2,645 7.4 -24.7°
Sets 22:18:53 0° 20° (NNE) 3,591 8.2 -24.2°
